Time,TemperatureF,DewpointF,PressureIn,WindDirection,WindDirectionDegrees,WindSpeedMPH,WindSpeedGustMPH,Humidity,HourlyPrecipIn,Conditions,Clouds,dailyrainin,SoftwareType,DateUTC
2013-08-22 00:14:00,74.1,69.0,29.94,WSW,250,1.0,-999.0,84,-99.99,,,0.00,weatherlink.com 1.10,2013-08-22 04:14:00,
2013-08-22 00:29:00,73.9,69.0,29.94,WSW,238,3.0,-999.0,84,-99.99,,,0.00,weatherlink.com 1.10,2013-08-22 04:29:00,
2013-08-22 00:44:00,73.6,69.0,29.94,West,278,0.0,-999.0,85,-99.99,,,0.00,weatherlink.com 1.10,2013-08-22 04:44:00,
2013-08-22 00:59:00,73.2,69.0,29.95,SW,228,1.0,-999.0,85,-99.99,,,0.00,weatherlink.com 1.10,2013-08-22 04:59:00,
2013-08-22 01:14:00,73.0,69.0,29.95,WSW,251,4.0,-999.0,86,-99.99,,,0.00,weatherlink.com 1.10,2013-08-22 05:14:00,
2013-08-22 01:29:00,73.1,69.0,29.94,West,281,3.0,-999.0,86,-99.99,,,0.00,weatherlink.com 1.10,2013-08-22 05:29:00,
2013-08-22 01:44:00,73.3,69.0,29.93,SSW,202,1.0,-999.0,85,-99.99,,,0.00,weatherlink.com 1.10,2013-08-22 05:44:00,
2013-08-22 01:59:00,73.3,68.0,29.93,West,281,6.0,-999.0,84,-99.99,,,0.00,weatherlink.com 1.10,2013-08-22 05:59:00,
2013-08-22 02:14:00,73.3,68.0,29.94,WNW,292,6.0,-999.0,84,-99.99,,,0.00,weatherlink.com 1.10,2013-08-22 06:14:00,
2013-08-22 02:29:00,74.2,69.0,29.94,WNW,302,8.0,-999.0,83,-99.99,,,0.00,weatherlink.com 1.10,2013-08-22 06:29:00,
2013-08-22 02:44:00,74.1,69.0,29.94,WNW,300,6.0,-999.0,83,-99.99,,,0.00,weatherlink.com 1.10,2013-08-22 06:44:00,
2013-08-22 02:59:00,73.6,69.0,29.93,WNW,300,6.0,-999.0,85,-99.99,,,0.00,weatherlink.com 1.10,2013-08-22 06:59:00,
2013-08-22 03:14:00,73.0,69.0,29.92,WNW,284,7.0,-999.0,86,-99.99,,,0.00,weatherlink.com 1.10,2013-08-22 07:14:00,
2013-08-22 03:29:00,72.4,68.0,29.92,WNW,284,6.0,-999.0,87,-99.99,,,0.00,weatherlink.com 1.10,2013-08-22 07:29:00,
2013-08-22 03:44:00,71.8,69.0,29.90,SSW,203,1.0,-999.0,89,-99.99,,,0.00,weatherlink.com 1.10,2013-08-22 07:44:00,
2013-08-22 03:59:00,71.4,68.0,29.88,South,187,4.0,-999.0,90,-99.99,,,0.00,weatherlink.com 1.10,2013-08-22 07:59:00,
2013-08-22 04:14:00,71.4,68.0,29.87,SSW,202,5.0,-999.0,90,-99.99,,,0.00,weatherlink.com 1.10,2013-08-22 08:14:00,
2013-08-22 04:30:00,71.4,68.0,29.89,WNW,290,4.0,-999.0,89,-99.99,,,0.00,weatherlink.com 1.10,2013-08-22 08:30:00,
2013-08-22 04:45:00,71.3,68.0,29.89,SW,217,4.0,-999.0,89,-99.99,,,0.00,weatherlink.com 1.10,2013-08-22 08:45:00,
2013-08-22 05:00:00,71.0,68.0,29.91,WNW,284,0.0,-999.0,90,-99.99,,,0.00,weatherlink.com 1.10,2013-08-22 09:00:00,
2013-08-22 05:15:00,70.7,68.0,29.91,NW,325,3.0,-999.0,90,-99.99,,,0.00,weatherlink.com 1.10,2013-08-22 09:15:00,
2013-08-22 05:30:00,70.4,67.0,29.91,WNW,292,2.0,-999.0,90,-99.99,,,0.00,weatherlink.com 1.10,2013-08-22 09:30:00,
2013-08-22 05:45:00,70.4,68.0,29.92,WNW,284,1.0,-999.0,91,-99.99,,,0.00,weatherlink.com 1.10,2013-08-22 09:45:00,
2013-08-22 06:00:00,70.4,67.0,29.93,WNW,286,2.0,-999.0,90,-99.99,,,0.00,weatherlink.com 1.10,2013-08-22 10:00:00,
2013-08-22 06:15:00,70.0,67.0,29.93,WNW,296,0.0,-999.0,89,-99.99,,,0.00,weatherlink.com 1.10,2013-08-22 10:15:00,
2013-08-22 06:30:00,69.4,66.0,29.94,WNW,296,0.0,-999.0,90,-99.99,,,0.00,weatherlink.com 1.10,2013-08-22 10:30:00,
2013-08-22 06:45:00,69.1,66.0,29.94,SSE,157,0.0,-999.0,91,-99.99,,,0.00,weatherlink.com 1.10,2013-08-22 10:45:00,
2013-08-22 08:30:00,68.9,66.0,29.97,WNW,295,0.0,-999.0,90,-99.99,,,0.00,weatherlink.com 1.10,2013-08-22 12:30:00,
2013-08-22 08:45:00,69.5,66.0,29.97,SW,234,2.0,-999.0,88,-99.99,,,0.00,weatherlink.com 1.10,2013-08-22 12:45:00,
2013-08-22 09:00:00,70.2,66.0,29.97,NNW,346,3.0,-999.0,87,-99.99,,,0.00,weatherlink.com 1.10,2013-08-22 13:00:00,
2013-08-22 09:15:00,70.8,66.0,29.97,NW,318,1.0,-999.0,85,-99.99,,,0.00,weatherlink.com 1.10,2013-08-22 13:15:00,
2013-08-22 09:30:00,71.3,66.0,29.96,NW,304,0.0,-999.0,84,-99.99,,,0.00,weatherlink.com 1.10,2013-08-22 13:30:00,
2013-08-22 09:45:00,72.0,67.0,29.97,NW,304,1.0,-999.0,83,-99.99,,,0.00,weatherlink.com 1.10,2013-08-22 13:45:00,
2013-08-22 10:00:00,72.5,67.0,29.96,NW,313,2.0,-999.0,82,-99.99,,,0.00,weatherlink.com 1.10,2013-08-22 14:00:00,
2013-08-22 10:15:00,73.1,67.0,29.96,WNW,296,2.0,-999.0,80,-99.99,,,0.00,weatherlink.com 1.10,2013-08-22 14:15:00,
2013-08-22 10:30:00,73.8,67.0,29.96,NW,311,3.0,-999.0,78,-99.99,,,0.00,weatherlink.com 1.10,2013-08-22 14:30:00,
2013-08-22 10:45:00,73.9,67.0,29.96,WNW,301,7.0,-999.0,78,-99.99,,,0.00,weatherlink.com 1.10,2013-08-22 14:45:00,
2013-08-22 11:00:00,74.7,67.0,29.97,WNW,285,2.0,-999.0,77,-99.99,,,0.00,weatherlink.com 1.10,2013-08-22 15:00:00,
2013-08-22 11:15:00,74.7,67.0,29.97,West,274,8.0,-999.0,76,-99.99,,,0.00,weatherlink.com 1.10,2013-08-22 15:15:00,
2013-08-22 11:30:00,75.8,67.0,29.97,West,278,4.0,-999.0,74,-99.99,,,0.00,weatherlink.com 1.10,2013-08-22 15:30:00,
2013-08-22 11:45:00,75.8,67.0,29.97,NW,306,5.0,-999.0,73,-99.99,,,0.00,weatherlink.com 1.10,2013-08-22 15:45:00,
2013-08-22 12:00:00,76.2,67.0,29.97,WNW,296,6.0,-999.0,73,-99.99,,,0.00,weatherlink.com 1.10,2013-08-22 16:00:00,
2013-08-22 12:15:00,77.1,68.0,29.97,North,5,0.0,-999.0,73,-99.99,,,0.00,weatherlink.com 1.10,2013-08-22 16:15:00,
2013-08-22 12:30:00,77.8,67.0,29.96,West,268,0.0,-999.0,70,-99.99,,,0.00,weatherlink.com 1.10,2013-08-22 16:30:00,
2013-08-22 12:45:00,79.3,68.0,29.96,West,276,5.0,-999.0,68,-99.99,,,0.00,weatherlink.com 1.10,2013-08-22 16:45:00,
2013-08-22 13:00:00,79.5,68.0,29.96,WNW,295,0.0,-999.0,69,-99.99,,,0.00,weatherlink.com 1.10,2013-08-22 17:00:00,
2013-08-22 13:15:00,79.8,68.0,29.95,NW,313,0.0,-999.0,68,-99.99,,,0.00,weatherlink.com 1.10,2013-08-22 17:15:00,
2013-08-22 13:30:00,79.8,69.0,29.95,WNW,285,0.0,-999.0,69,-99.99,,,0.00,weatherlink.com 1.10,2013-08-22 17:30:00,
2013-08-22 13:45:00,80.0,69.0,29.95,SSW,193,0.0,-999.0,70,-99.99,,,0.00,weatherlink.com 1.10,2013-08-22 17:45:00,
2013-08-22 14:00:00,79.9,69.0,29.95,West,275,1.0,-999.0,70,-99.99,,,0.00,weatherlink.com 1.10,2013-08-22 18:00:00,
2013-08-22 14:15:00,81.6,69.0,29.95,WNW,291,0.0,-999.0,65,-99.99,,,0.00,weatherlink.com 1.10,2013-08-22 18:15:00,
2013-08-22 14:30:00,80.4,69.0,29.95,NW,319,0.0,-999.0,68,-99.99,,,0.00,weatherlink.com 1.10,2013-08-22 18:30:00,
2013-08-22 14:45:00,80.3,69.0,29.96,East,86,0.0,-999.0,68,-99.99,,,0.00,weatherlink.com 1.10,2013-08-22 18:45:00,
2013-08-22 15:00:00,80.2,70.0,29.95,West,281,1.0,-999.0,70,-99.99,,,0.00,weatherlink.com 1.10,2013-08-22 19:00:00,
2013-08-22 15:15:00,79.1,70.0,29.95,WSW,249,0.0,-999.0,73,-99.99,,,0.00,weatherlink.com 1.10,2013-08-22 19:15:00,
2013-08-22 15:30:00,79.0,69.0,29.94,NW,322,7.0,-999.0,71,-99.99,,,0.00,weatherlink.com 1.10,2013-08-22 19:30:00,
2013-08-22 15:45:00,78.7,70.0,29.94,SSE,168,0.0,-999.0,74,-99.99,,,0.00,weatherlink.com 1.10,2013-08-22 19:45:00,
2013-08-22 16:00:00,79.4,69.0,29.93,WNW,291,4.0,-999.0,71,-99.99,,,0.00,weatherlink.com 1.10,2013-08-22 20:00:00,
2013-08-22 16:15:00,79.0,69.0,29.93,NNE,15,0.0,-999.0,72,-99.99,,,0.00,weatherlink.com 1.10,2013-08-22 20:15:00,
2013-08-22 16:30:00,79.0,69.0,29.94,SSW,200,0.0,-999.0,72,-99.99,,,0.00,weatherlink.com 1.10,2013-08-22 20:30:00,
2013-08-22 16:45:00,78.5,69.0,29.94,NW,318,1.0,-999.0,73,-99.99,,,0.00,weatherlink.com 1.10,2013-08-22 20:45:00,
2013-08-22 17:00:00,78.4,69.0,29.94,NNE,29,0.0,-999.0,73,-99.99,,,0.00,weatherlink.com 1.10,2013-08-22 21:00:00,
2013-08-22 17:15:00,78.3,69.0,29.94,NW,322,0.0,-999.0,73,-99.99,,,0.00,weatherlink.com 1.10,2013-08-22 21:15:00,
2013-08-22 17:30:00,78.0,70.0,29.94,West,269,0.0,-999.0,75,-99.99,,,0.00,weatherlink.com 1.10,2013-08-22 21:30:00,
2013-08-22 17:45:00,77.7,69.0,29.94,WNW,299,0.0,-999.0,74,-99.99,,,0.00,weatherlink.com 1.10,2013-08-22 21:45:00,
2013-08-22 18:00:00,77.5,69.0,29.94,WNW,290,3.0,-999.0,76,-99.99,,,0.00,weatherlink.com 1.10,2013-08-22 22:00:00,
2013-08-22 18:15:00,77.3,69.0,29.94,West,277,6.0,-999.0,76,-99.99,,,0.00,weatherlink.com 1.10,2013-08-22 22:15:00,
2013-08-22 18:30:00,76.9,69.0,29.94,WNW,287,4.0,-999.0,77,-99.99,,,0.00,weatherlink.com 1.10,2013-08-22 22:30:00,
2013-08-22 18:45:00,76.0,69.0,29.94,West,275,9.0,-999.0,78,-99.99,,,0.00,weatherlink.com 1.10,2013-08-22 22:45:00,
2013-08-22 19:00:00,75.7,69.0,29.94,NW,309,2.0,-999.0,79,-99.99,,,0.00,weatherlink.com 1.10,2013-08-22 23:00:00,
2013-08-22 19:15:00,75.3,69.0,29.94,WNW,290,4.0,-999.0,81,-99.99,,,0.00,weatherlink.com 1.10,2013-08-22 23:15:00,
2013-08-22 19:30:00,74.8,69.0,29.94,WNW,292,4.0,-999.0,83,-99.99,,,0.00,weatherlink.com 1.10,2013-08-22 23:30:00,
2013-08-22 19:45:00,74.5,69.0,29.93,WNW,302,5.0,-999.0,84,-99.99,,,0.00,weatherlink.com 1.10,2013-08-22 23:45:00,
2013-08-22 20:01:00,74.2,70.0,29.94,NNE,32,0.0,-999.0,86,-99.99,,,0.00,weatherlink.com 1.10,2013-08-23 00:01:00,
2013-08-22 20:16:00,73.8,69.0,29.94,West,268,0.0,-999.0,86,-99.99,,,0.00,weatherlink.com 1.10,2013-08-23 00:16:00,
2013-08-22 20:31:00,73.4,69.0,29.94,NW,312,0.0,-999.0,87,-99.99,,,0.00,weatherlink.com 1.10,2013-08-23 00:31:00,
2013-08-22 21:01:00,72.4,69.0,29.94,WNW,288,0.0,-999.0,89,-99.99,,,0.00,weatherlink.com 1.10,2013-08-23 01:01:00,
2013-08-22 21:16:00,71.9,69.0,29.95,ENE,65,0.0,-999.0,90,-99.99,,,0.00,weatherlink.com 1.10,2013-08-23 01:16:00,
2013-08-22 21:31:00,71.3,69.0,29.95,ENE,65,0.0,-999.0,91,-99.99,,,0.00,weatherlink.com 1.10,2013-08-23 01:31:00,
2013-08-22 21:46:00,71.0,69.0,29.95,ENE,65,0.0,-999.0,92,-99.99,,,0.00,weatherlink.com 1.10,2013-08-23 01:46:00,
2013-08-22 22:01:00,70.6,69.0,29.95,ENE,58,0.0,-999.0,93,-99.99,,,0.00,weatherlink.com 1.10,2013-08-23 02:01:00,
2013-08-22 22:16:00,70.3,68.0,29.96,NE,56,0.0,-999.0,93,-99.99,,,0.00,weatherlink.com 1.10,2013-08-23 02:16:00,
2013-08-22 22:31:00,69.9,68.0,29.96,NE,56,0.0,-999.0,93,-99.99,,,0.00,weatherlink.com 1.10,2013-08-23 02:31:00,
2013-08-22 22:46:00,69.4,68.0,29.96,NE,56,0.0,-999.0,94,-99.99,,,0.00,weatherlink.com 1.10,2013-08-23 02:46:00,
2013-08-22 23:01:00,69.2,68.0,29.96,NE,56,0.0,-999.0,94,-99.99,,,0.00,weatherlink.com 1.10,2013-08-23 03:01:00,
2013-08-22 23:16:00,68.8,67.0,29.97,NE,56,0.0,-999.0,94,-99.99,,,0.00,weatherlink.com 1.10,2013-08-23 03:16:00,
2013-08-22 23:31:00,68.3,67.0,29.97,NE,56,0.0,-999.0,95,-99.99,,,0.00,weatherlink.com 1.10,2013-08-23 03:31:00,
2013-08-22 23:46:00,68.2,67.0,29.97,NE,56,0.0,-999.0,95,-99.99,,,0.00,weatherlink.com 1.10,2013-08-23 03:46:00,